[[{"header":{"parameterUnit":"m.s-1","parameterCategory":1,"la1":30.2991,"la2":30.254,"lo1":-89.0895,"lo2":-89.0444,"dy":0.0017,"dx":0.0017,"nx":28,"ny":28,"refTime":"2024-07-26T03:00:00:Z","depth":0,"parameterNumber":2,"parameterNumberName":"U-component_of_WINDS"},"data":[0,0,0,0,0,0,0,0,0,0,0,0,0,0,0,0,0,0,0,0,0,0,0,0,0,0,0,0,0,0,0,0,0,0,0,0,0,0,0,0,0,0,0,0,0,0,0,0,0,0,0,0,0,0,0,0,0,0,-0.6681,-0.668,0,-0.6592,-0.6591,-0.659,-0.6546,-0.6546,-0.6546,-0.6546,-0.6453,-0.6451,-0.6448,0,0,0,0,0,0,0,0,0,0,0,0,0,-0.6811,-0.6809,-0.6681,-0.668,-0.6679,-0.6592,-0.6591,-0.659,-0.6546,-0.6546,-0.6546,-0.6546,-0.6454,-0.6451,-0.6448,0,0,0,0,0,0,0,0,0,0,0,0,0,-0.6742,-0.6809,-0.6681,-0.6647,-0.6643,-0.6593,-0.6591,-0.6589,-0.6546,-0.6546,-0.6546,-0.6546,-0.6455,-0.6451,-0.6448,-0.6425,0,0,-0.6436,-0.6435,0,0,0,0,0,0,0,0,-0.6746,-0.6737,-0.6653,-0.6649,-0.6644,-0.658,-0.6603,-0.6534,-0.6546,-0.6583,-0.6546,-0.6546,-0.6495,-0.6488,-0.6472,-0.642,-0.6416,-0.6436,-0.6434,-0.6432,-0.6431,0,0,0,0,0,0,0,-0.6751,-0.6741,-0.6646,-0.6652,-0.6646,-0.6635,-0.6625,-0.659,-0.654,-0.658,-0.6576,-0.6566,-0.6493,-0.6475,-0.6469,-0.6415,-0.6436,-0.6433,-0.643,-0.6429,-0.6341,-0.634,0,0,0,0,0,0,-0.6761,-0.6745,-0.6649,-0.6643,-0.6696,-0.6633,-0.6622,-0.6601,-0.654,-0.6531,-0.6566,-0.6565,-0.6482,-0.6473,-0.6466,-0.6435,-0.6432,-0.6429,-0.6427,-0.6341,-0.6341,-0.634,0,0,0,0,0,0,-0.6764,-0.6753,-0.6652,-0.6693,-0.6679,-0.663,-0.6607,-0.6599,-0.6581,-0.653,-0.6521,-0.6557,-0.6481,-0.6471,-0.6435,-0.6431,-0.6427,-0.6424,-0.6341,-0.6341,-0.634,-0.6373,0,0,0,0,0,0,-0.6768,-0.6755,-0.6746,-0.6693,-0.6677,-0.6624,-0.6607,-0.6597,-0.6575,-0.6572,-0.652,-0.6511,-0.648,-0.6441,-0.6432,-0.6426,-0.6421,-0.6341,-0.6341,-0.6341,-0.6372,-0.6374,-0.6375,0,0,0,0,0,-0.6773,-0.6758,-0.6745,-0.6734,-0.6665,-0.6624,-0.6615,-0.658,-0.6575,-0.6565,-0.6533,-0.6512,-0.6433,-0.6438,-0.6427,-0.642,-0.6341,-0.6341,-0.6341,-0.6371,-0.6373,-0.6375,0,0,0,0,0,0,-0.681,-0.675,-0.6736,-0.6703,-0.6669,-0.6616,-0.6603,-0.6584,-0.655,-0.6548,-0.6507,-0.6495,-0.6464,-0.6438,-0.6444,-0.6394,-0.6385,-0.6383,-0.6412,-0.6414,-0.6415,-0.6422,-0.6418,0,0,0,0,0,-0.6815,-0.6786,-0.6735,-0.6711,-0.6695,-0.6652,-0.6633,-0.661,-0.6572,-0.6557,-0.6522,-0.6486,-0.6453,-0.6432,-0.6399,-0.6368,-0.6356,-0.6358,-0.636,-0.6361,-0.6359,-0.6341,-0.6341,-0.6339,-0.6339,-0.6339,0,0,-0.6823,-0.6787,-0.6771,-0.6718,-0.6689,-0.666,-0.664,-0.6611,-0.6589,-0.6553,-0.6517,-0.649,-0.6447,-0.6414,-0.6398,-0.6392,-0.6357,-0.6361,-0.6363,-0.636,-0.6341,-0.6341,-0.6341,-0.6339,-0.6339,-0.6339,0,0,-0.6824,-0.6794,-0.6771,-0.6742,-0.6699,-0.667,-0.6665,-0.6615,-0.6596,-0.656,-0.6533,-0.6506,-0.645,-0.642,-0.6398,-0.6389,-0.6369,-0.638,-0.6388,-0.6371,-0.6371,-0.6371,-0.6368,-0.6367,-0.6378,-0.6378,-0.6378,0,-0.684,-0.6796,-0.6761,-0.6733,-0.671,-0.6677,-0.6653,-0.6627,-0.6575,-0.6559,-0.6554,-0.6483,-0.6452,-0.6412,-0.641,-0.6393,-0.6385,-0.6385,-0.6374,-0.6374,-0.6373,-0.6369,-0.6368,-0.638,-0.6379,-0.6379,-0.6379,0,-0.6818,-0.6788,-0.6774,-0.6725,-0.6701,-0.6675,-0.6636,-0.6616,-0.6595,-0.6567,-0.6531,-0.6493,-0.6451,-0.644,-0.6419,-0.6397,-0.6395,-0.6382,-0.6372,-0.6375,-0.6371,-0.6369,-0.6382,-0.6381,-0.6381,-0.638,0,0,-0.6838,-0.6771,-0.6767,-0.6744,-0.6694,-0.667,-0.6643,-0.6603,-0.6586,-0.6551,-0.6527,-0.6481,-0.6469,-0.6444,-0.642,-0.6405,-0.64,-0.6394,-0.6393,-0.6397,-0.6373,-0.6383,-0.6382,-0.6387,-0.6387,-0.6387,-0.6377,0,-0.6832,-0.6782,-0.675,-0.6713,-0.6685,-0.6653,-0.663,-0.6596,-0.657,-0.6542,-0.6513,-0.6481,-0.6468,-0.6452,-0.6436,-0.6405,-0.6395,-0.6405,-0.6364,-0.6363,-0.6375,-0.6379,-0.6389,-0.6382,-0.6375,-0.6375,-0.6375,0,-0.6818,-0.6784,-0.6745,-0.6698,-0.6685,-0.6664,-0.6625,-0.6599,-0.656,-0.6542,-0.6515,-0.6491,-0.646,-0.6454,-0.6411,-0.6419,-0.64,-0.6382,-0.6381,-0.6375,-0.6369,-0.6374,-0.6379,-0.6377,-0.6372,-0.6372,-0.6372,0,-0.6836,-0.6782,-0.6751,-0.6733,-0.6677,-0.6664,-0.664,-0.6601,-0.658,-0.6546,-0.6531,-0.6494,-0.6474,-0.6445,-0.6411,-0.641,-0.6373,-0.6363,-0.6356,-0.6357,-0.6349,-0.635,-0.6351,-0.6339,-0.6339,-0.6339,-0.6339,0,-0.6832,-0.6809,-0.6759,-0.6739,-0.6713,-0.6676,-0.665,-0.6624,-0.659,-0.6565,-0.6536,-0.6513,-0.647,-0.6442,-0.6416,-0.6385,-0.6376,-0.636,-0.6353,-0.6362,-0.6364,-0.6349,-0.6348,-0.6338,-0.6338,-0.6338,-0.6338,0,-0.6848,-0.6814,-0.6778,-0.6729,-0.6716,-0.6698,-0.6656,-0.6636,-0.6609,-0.6578,-0.6569,-0.6525,-0.6491,-0.6455,-0.6407,-0.639,-0.636,-0.635,-0.6373,-0.6369,-0.6364,-0.6365,-0.6355,-0.6352,-0.6342,-0.6342,-0.6342,0,-0.6848,-0.6829,-0.6779,-0.676,-0.6737,-0.6708,-0.6686,-0.6649,-0.6628,-0.6583,-0.6568,-0.6532,-0.6501,-0.6447,-0.6411,-0.6375,-0.6364,-0.6363,-0.6358,-0.6369,-0.6364,-0.6365,-0.6363,-0.6365,-0.6365,-0.6365,-0.6365,0,-0.685,-0.6834,-0.6804,-0.6768,-0.6742,-0.6712,-0.668,-0.6666,-0.6624,-0.6601,-0.6565,-0.6541,-0.6494,-0.6458,-0.6418,-0.6393,-0.6372,-0.6367,-0.6364,-0.6373,-0.6386,-0.6379,-0.6377,-0.6367,-0.6367,-0.6367,-0.6367,-0.6367,-0.6858,-0.684,-0.6802,-0.6769,-0.6741,-0.6713,-0.6692,-0.6662,-0.6632,-0.6591,-0.6571,-0.6536,-0.6498,-0.6442,-0.6418,-0.639,-0.6384,-0.6379,-0.6377,-0.6376,-0.6379,-0.6392,-0.6382,-0.6382,-0.6382,-0.6382,-0.6382,0,-0.6859,-0.6833,-0.6803,-0.676,-0.6734,-0.6717,-0.6682,-0.6661,-0.663,-0.6597,-0.6567,-0.6527,-0.6492,-0.6454,-0.6417,-0.6402,-0.6391,-0.6393,-0.6393,-0.6388,-0.6386,-0.6393,-0.6402,-0.6402,-0.6402,-0.6402,-0.6402,-0.6402,-0.6856,-0.6825,-0.6805,-0.676,-0.6733,-0.6699,-0.668,-0.6653,-0.6627,-0.6583,-0.6554,-0.653,-0.6495,-0.6455,-0.6422,-0.6412,-0.6399,-0.6404,-0.6391,-0.639,-0.6388,-0.6387,-0.6393,-0.6402,-0.6402,-0.6395,-0.6395,-0.6395]},{"header":{"parameterUnit":"m.s-1","parameterCategory":1,"la1":30.2991,"la2":30.254,"lo1":-89.0895,"lo2":-89.0444,"dy":0.0017,"dx":0.0017,"nx":28,"ny":28,"refTime":"2024-07-26T03:00:00:Z","depth":0,"parameterNumber":3,"parameterNumberName":"V-component_of_WINDS"},"data":[0,0,0,0,0,0,0,0,0,0,0,0,0,0,0,0,0,0,0,0,0,0,0,0,0,0,0,0,0,0,0,0,0,0,0,0,0,0,0,0,0,0,0,0,0,0,0,0,0,0,0,0,0,0,0,0,0,0,3.3922,3.3923,0,3.3981,3.3982,3.3983,3.4007,3.4007,3.4007,3.4007,3.4064,3.4066,3.4067,0,0,0,0,0,0,0,0,0,0,0,0,0,3.3827,3.3828,3.3922,3.3923,3.3924,3.3981,3.3982,3.3983,3.4007,3.4007,3.4007,3.4007,3.4063,3.4065,3.4067,0,0,0,0,0,0,0,0,0,0,0,0,0,3.3875,3.3829,3.3922,3.3943,3.3945,3.3981,3.3982,3.3983,3.4007,3.4007,3.4007,3.4007,3.4063,3.4065,3.4068,3.4086,0,0,3.4075,3.4076,0,0,0,0,0,0,0,0,3.3872,3.3879,3.3939,3.3942,3.3944,3.3987,3.3969,3.4017,3.4008,3.3984,3.4007,3.4007,3.4038,3.4043,3.4054,3.4089,3.4091,3.4075,3.4077,3.4078,3.4078,0,0,0,0,0,0,0,3.3869,3.3876,3.3946,3.394,3.3943,3.3948,3.3955,3.3979,3.4011,3.3986,3.3988,3.3995,3.404,3.4052,3.4056,3.4092,3.4075,3.4077,3.4079,3.408,3.4144,3.4144,0,0,0,0,0,0,3.3863,3.3873,3.3944,3.3947,3.3907,3.395,3.3958,3.3973,3.4011,3.4017,3.3995,3.3996,3.4048,3.4053,3.4058,3.4082,3.4078,3.408,3.4081,3.4144,3.4144,3.4144,0,0,0,0,0,0,3.386,3.3869,3.3941,3.3911,3.3921,3.3952,3.3969,3.3975,3.3987,3.4018,3.4023,3.4001,3.4048,3.4054,3.4079,3.4084,3.4081,3.4083,3.4144,3.4144,3.4144,3.413,0,0,0,0,0,0,3.3858,3.3868,3.3876,3.3911,3.3922,3.3963,3.397,3.3976,3.3991,3.3993,3.4025,3.403,3.4048,3.4075,3.4081,3.4087,3.4085,3.4143,3.4144,3.4144,3.413,3.413,3.4129,0,0,0,0,0,3.3854,3.3869,3.3876,3.3885,3.3933,3.3963,3.3969,3.399,3.3992,3.4,3.4019,3.4029,3.4082,3.4078,3.4085,3.4091,3.4143,3.4144,3.4144,3.413,3.413,3.4129,0,0,0,0,0,0,3.3832,3.3874,3.3882,3.3909,3.3932,3.3967,3.3978,3.3989,3.4011,3.4012,3.4036,3.4043,3.4065,3.4081,3.4075,3.4111,3.4113,3.4115,3.41,3.41,3.41,3.4096,3.4087,0,0,0,0,0,3.3831,3.3853,3.3887,3.3907,3.3919,3.3946,3.396,3.3974,3.3999,3.4008,3.403,3.4052,3.4074,3.4088,3.411,3.4132,3.4139,3.414,3.414,3.414,3.4141,3.4154,3.4155,3.4146,3.4146,3.4146,0,0,3.3827,3.3853,3.3865,3.3903,3.3923,3.3944,3.3954,3.3976,3.3992,3.4011,3.4036,3.4053,3.408,3.4103,3.4115,3.4117,3.4145,3.414,3.414,3.4142,3.4155,3.4156,3.4156,3.4147,3.4147,3.4147,0,0,3.3832,3.3854,3.3873,3.3893,3.3923,3.3941,3.3946,3.3979,3.3991,3.4017,3.4032,3.405,3.4087,3.4106,3.412,3.4132,3.4142,3.4138,3.4136,3.4149,3.4149,3.415,3.4154,3.4156,3.4139,3.4139,3.4139,0,3.3824,3.3858,3.3881,3.3902,3.3919,3.3938,3.3957,3.3975,3.401,3.402,3.4022,3.407,3.4089,3.4117,3.412,3.4131,3.4136,3.4134,3.4148,3.4149,3.415,3.4154,3.4155,3.4139,3.4139,3.4139,3.4139,0,3.3846,3.3869,3.388,3.3916,3.3933,3.3953,3.3978,3.3993,3.4005,3.4023,3.4049,3.4073,3.41,3.4107,3.4119,3.4137,3.4138,3.4143,3.4146,3.4149,3.4154,3.4156,3.4138,3.4138,3.4138,3.4138,0,0,3.3838,3.3887,3.389,3.3907,3.3942,3.3959,3.3979,3.4007,3.4019,3.4043,3.406,3.4091,3.4097,3.4113,3.4127,3.4138,3.4145,3.4142,3.4143,3.4142,3.4167,3.4163,3.4164,3.4152,3.4153,3.4153,3.4165,0,3.3848,3.3887,3.3909,3.3938,3.396,3.3979,3.3997,3.4019,3.4036,3.4056,3.4074,3.4096,3.4101,3.4111,3.4123,3.4142,3.4151,3.4141,3.4168,3.4169,3.4161,3.4166,3.4162,3.4172,3.4166,3.4167,3.4167,0,3.3865,3.3889,3.3922,3.3954,3.3964,3.398,3.4007,3.4026,3.4051,3.4063,3.4081,3.4095,3.4116,3.4117,3.4147,3.414,3.4152,3.4163,3.4164,3.4167,3.4168,3.417,3.4175,3.4177,3.417,3.417,3.4169,0,3.3857,3.3897,3.3922,3.3935,3.3974,3.3984,3.4001,3.4027,3.4042,3.4065,3.4075,3.4099,3.4113,3.4131,3.4152,3.4151,3.4179,3.4182,3.4188,3.4188,3.4194,3.4193,3.4201,3.4201,3.4201,3.4201,3.4201,0,3.3865,3.3884,3.3919,3.3934,3.3956,3.398,3.4,3.4017,3.404,3.4058,3.4075,3.4092,3.4117,3.4136,3.4152,3.4174,3.418,3.4189,3.4193,3.4188,3.4187,3.4196,3.4196,3.4201,3.4201,3.4201,3.4201,0,3.386,3.3884,3.3912,3.3947,3.3956,3.397,3.3999,3.4014,3.4032,3.4054,3.4061,3.4088,3.4112,3.4134,3.4165,3.4175,3.4198,3.4202,3.4189,3.4191,3.4197,3.4196,3.4212,3.4215,3.4212,3.4212,3.4212,0,3.3864,3.3879,3.3916,3.393,3.3946,3.3968,3.3984,3.4008,3.4023,3.4054,3.4065,3.409,3.4111,3.4148,3.417,3.4194,3.42,3.4203,3.4203,3.4197,3.42,3.4199,3.42,3.4203,3.4203,3.4203,3.4203,0,3.3869,3.388,3.3903,3.3931,3.3949,3.3972,3.3994,3.4004,3.4032,3.4048,3.4073,3.409,3.4122,3.4147,3.4173,3.4189,3.42,3.4203,3.4206,3.42,3.4192,3.4197,3.4188,3.4202,3.4202,3.4202,3.4202,3.4202,3.3869,3.3883,3.3911,3.3936,3.3956,3.3977,3.3993,3.4013,3.4034,3.4063,3.4075,3.4101,3.4125,3.4162,3.4178,3.4197,3.42,3.4204,3.4205,3.4205,3.4205,3.4189,3.4202,3.4202,3.4202,3.4202,3.4202,0,3.3875,3.3894,3.3917,3.3948,3.3968,3.3978,3.4003,3.4019,3.4041,3.4064,3.4085,3.4113,3.4137,3.4161,3.4186,3.4197,3.4203,3.4203,3.4202,3.4206,3.4201,3.4196,3.4198,3.4198,3.4198,3.4198,3.4198,3.4198,3.388,3.3906,3.392,3.3955,3.3973,3.3999,3.4013,3.4032,3.405,3.4081,3.4102,3.4118,3.4141,3.4168,3.419,3.4196,3.4205,3.4203,3.4211,3.4206,3.4206,3.4206,3.4202,3.4205,3.4205,3.4214,3.4214,3.4214]}]]